sat.trackr.live / text

‹ back to catalog

JILIN-1 GAOFEN 3A

NORAD 44312 · 2019-032C

PAYLOAD ACTIVE UNKNOWN

§ Identity

Operator
Country
PRC
Launch date
2019-06-05
Launch site
YSLA
Launch vehicle
Mass (kg)
RCS (m²)

External: N2YO · Heavens-Above · Gunter

§ Orbital elements

Epoch: 2026-05-25T04:53:00.930336Z

Period
93.99 min
Inclination
44.9737°
Eccentricity
0.0004557
Mean motion
15.32045773 rev/d
Perigee alt
466.6 km
Apogee alt
472.8 km
Semi-major
6,847.8 km
B*
3.6214e-4
RAAN
123.3771°
Arg perigee
184.5302°
Mean anomaly
175.5542°
Rev number
38,431

§ Raw data

JILIN-1 GAOFEN 3A1 44312U 19032C   26145.20348299  .00011133  00000+0  36214-3 0  99912 44312  44.9737 123.3771 0004557 184.5302 175.5542 15.32045773384313

JSON: /api/v1/satellites/44312 · /tle

For live sub-satellite position, see the globe view (requires WebGL).

§ Visibility from observer

Set your observer location to see the next 7 days of passes ≥ 10°. The values pass through the URL so the page stays shareable.

No JS? Fill the form by hand. The geolocation button needs JavaScript.

§ Radio — SatNOGS DB

ModeDescriptionDownlinkUplink
FM Mode U - Possibly Downlink 401.126 MHz

1 transmitter · refreshed weekly from db.satnogs.org